This demonstration page uses our WeatherBlox Daily Observations layout. Learn more.

Left ArrowRight Arrow

Hourly Observations for November 23, 2022

Temp ( °F °C ) Dew Point ( °F °C ) Humidity (%) Winds ( mph kmh ) Pressure ( in mb ) Visibility ( mi km ) Precip ( " mm )
12:53 am 00:53 Mostly Clear 39 3.9 37 2.8 93 93 S 9 15 30.11 1020 10 16 0.00 0.00
1:53 am 01:53 Mostly Clear 37 2.8 35 1.7 92 92 S 8 13 30.11 1020 10 16 0.00 0.00
2:53 am 02:53 Clear 39 3.9 37 2.8 93 93 SSE 9 15 30.09 1019 10 16 0.00 0.00
3:53 am 03:53 Clear 40 4.4 38 3.3 93 93 S 10 17 30.08 1019 10 16 0.00 0.00
4:53 am 04:53 Mostly Clear 39 3.9 38 3.3 96 96 SSE 10 17 30.06 1018 10 16 0.00 0.00
5:53 am 05:53 Mostly Clear 38 3.3 37 2.8 97 97 SSE 9 15 30.06 1018 7 11 0.00 0.00
6:53 am 06:53 Partly Cloudy 39 3.9 38 3.3 96 96 SSE 10 17 30.06 1018 7 11 0.00 0.00
7:53 am 07:53 Mostly Cloudy with Mist and Fog 39 3.9 38 3.3 96 96 SSE 12 19 30.05 1018 3 4 0.00 0.00
8:22 am 08:22 Partly Cloudy with Mist and Fog 40 4.4 38 3.3 93 93 SSE 12 19 30.07 1018 3 4 0.00 0.00
8:37 am 08:37 Mostly Cloudy with Mist and Fog 41 5 40 4.4 96 96 SSE 12 19 30.07 1018 3 4 0.00 0.00
8:53 am 08:53 Cloudy with Mist and Fog 41 5 40 4.4 96 96 S 9 15 30.05 1018 3 4 0.00 0.00
9:53 am 09:53 Cloudy with Mist and Fog 45 7.2 43 6.1 93 93 S 15 24 30.05 1018 2 3 0.00 0.00
10:05 am 10:05 Cloudy with Mist and Fog 45 7.2 44 6.7 97 97 S 12 19 30.06 1018 3 5 0.00 0.00
10:16 am 10:16 Cloudy with Mist and Fog 46 7.8 44 6.7 93 93 S 13 20 30.05 1018 3 5 0.00 0.00
10:53 am 10:53 Cloudy with Mist and Fog 48 8.9 45 7.2 89 89 S 17 28 30.03 1017 5 8 0.00 0.00
11:53 am 11:53 Cloudy 47 8.3 44 6.7 90 90 S 16 26 30.01 1016 7 11 0.00 0.00
12:53 pm 12:53 Cloudy 51 10.6 45 7.2 79 79 S 16 26 29.96 1015 9 14 0.00 0.00
1:04 pm 13:04 Cloudy 51 10.6 45 7.2 79 79 S 17 28 29.96 1015 10 16 0.00 0.00
1:53 pm 13:53 Cloudy 53 11.7 46 7.8 77 77 S 18 30 29.93 1014 10 16 0.00 0.00
2:37 pm 14:37 Cloudy 54 12.2 47 8.3 77 77 S 13 20 29.91 1013 10 16 0.00 0.00
2:53 pm 14:53 Cloudy 54 12.2 47 8.3 77 77 S 18 30 29.91 1013 10 16 0.00 0.00
3:24 pm 15:24 Cloudy 53 11.7 47 8.3 80 80 S 16 26 29.91 1013 10 16 0.00 0.00
3:53 pm 15:53 Cloudy 53 11.7 48 8.9 83 83 SSE 13 20 29.91 1013 10 16 0.00 0.00
4:53 pm 16:53 Cloudy 51 10.6 48 8.9 89 89 SSE 13 20 29.92 1013 10 16 0.00 0.00
5:21 pm 17:21 Cloudy 51 10.6 48 8.9 89 89 SSE 13 20 29.93 1014 10 16 0.00 0.00
5:53 pm 17:53 Cloudy 51 10.6 48 8.9 89 89 SSE 15 24 29.93 1013 10 16 0.00 0.00
6:27 pm 18:27 Cloudy 51 10.6 48 8.9 89 89 SSE 13 20 29.93 1014 10 16 0.00 0.00
6:38 pm 18:38 Cloudy 51 10.6 48 8.9 89 89 SSE 12 19 29.93 1014 10 16 0.00 0.00
6:53 pm 18:53 Cloudy 51 10.6 48 8.9 89 89 SSE 12 19 29.93 1014 10 16 0.00 0.00
7:31 pm 19:31 Cloudy 51 10.6 48 8.9 89 89 SSE 13 20 29.94 1014 10 16 0.00 0.00
7:53 pm 19:53 Cloudy 51 10.6 48 8.9 89 89 SSE 12 19 29.95 1014 10 16 0.00 0.00
8:08 pm 20:08 Cloudy 51 10.6 48 8.9 89 89 SSE 13 20 29.95 1014 10 16 0.00 0.00
8:53 pm 20:53 Cloudy 50 10 48 8.9 93 93 SSE 10 17 29.96 1015 10 16 0.00 0.00
9:43 pm 21:43 Cloudy 50 10 47 8.3 89 89 SE 12 19 29.96 1015 10 16 0.00 0.00
9:53 pm 21:53 Cloudy 50 10 47 8.3 89 89 SE 10 17 29.96 1014 10 16 0.00 0.00
10:08 pm 22:08 Cloudy 50 10 47 8.3 89 89 SE 10 17 29.97 1015 10 16 0.00 0.00
10:53 pm 22:53 Cloudy 50 10 47 8.3 89 89 SE 10 17 29.96 1015 10 16 0.00 0.00
11:37 pm 23:37 Cloudy with Drizzle 49 9.4 48 8.9 97 97 SSE 10 17 29.99 1015 7 11 0.01 0.13
11:53 pm 23:53 Cloudy with Drizzle 49 9.4 48 8.9 97 97 SSE 9 15 29.97 1015 8 13 0.01 0.13

Powered by AerisWeather